Flag for Germany Weather past 2 weeks in Peine, Lower Saxony, Germany

Now
48 °F

Passing clouds.


Feels Like: 47 °F
Forecast: 51 / 61 °F
Wind: 3 mph from South

Location: Celle Airport

Current Time: Sep 24, 2014 at 5:08:26 AM

Latest Report: Sep 24, 2014 at 4:20 AM


Visibility: N/A

Pressure: 29.98 "Hg

Humidity: 87%

Dew point: 45 °F

Location of PeineLocation

Historic Weather in Peine — Graph

°F

Peine temperature yesterday

Maximum temperature yesterday: 61 °F (at 2:20 PM)
Minimum temperature yesterday: 41 °F (at 7:20 AM)
Average temperature yesterday: 52 °F

Past Weeks' High & Low Weather Summary

 TemperatureHumidityPressure
High75 °F (Sep 16, 3:20 PM)100% (Sep 9, 6:20 AM)30.21 "Hg (Sep 9, 6:20 AM)
Low41 °F (Sep 23, 7:20 AM)45% (Sep 22, 2:20 PM)29.89 "Hg (Sep 18, 1:20 PM)
Average61 °F82%30.04 "Hg
* Reported Sep 9 3:20 AM — Sep 24 3:20 AM, Peine, Weather by CustomWeather, © 2014

Note: Actual official high and low records may vary slightly from our data, if they occured in-between our weather recording intervals... More about our weather records

Advertising

Peine weather history for previous 24 hours

 ConditionsComfort  
Time TempWeatherWind HumidityBarometerVisibility
3:20 AM
Sep 24
48 °FPassing clouds.2 mph87%30.01 "HgN/A
2:20 AM48 °FFog.1 mph87%30.01 "HgN/A
1:20 AM46 °FPassing clouds.1 mph87%30.04 "HgN/A
12:20 AM48 °FFog.1 mph87%30.04 "HgN/A
12:00 AM48 °FPassing clouds.1 mph94%30.04 "HgN/A
11:20 PM
Sep 23
48 °FFog.No wind94%30.04 "HgN/A
10:20 PM50 °FFog.1 mph88%30.07 "HgN/A
9:20 PM55 °FPassing clouds.1 mph72%30.07 "HgN/A
8:20 PM57 °FPassing clouds.2 mph67%30.07 "HgN/A
7:20 PM57 °FPartly sunny.2 mph67%30.07 "HgN/A
6:20 PM59 °FPartly sunny.3 mph63%30.07 "HgN/A
5:20 PM61 °FPartly sunny.2 mph55%30.07 "HgN/A
4:20 PM61 °FScattered clouds.6 mph55%30.09 "HgN/A
3:20 PM61 °FScattered clouds.7 mph52%30.09 "HgN/A
2:20 PM61 °FScattered clouds.6 mph52%30.12 "HgN/A
1:20 PM59 °FScattered clouds.5 mph55%30.12 "HgN/A
12:20 PM57 °FScattered clouds.3 mph55%30.15 "HgN/A
11:20 AM57 °FScattered clouds.2 mph55%30.15 "HgN/A
10:20 AM54 °FPassing clouds.3 mph67%30.15 "HgN/A
9:20 AM50 °FScattered clouds.2 mph76%30.12 "HgN/A
8:20 AM45 °FPassing clouds.5 mph87%30.12 "HgN/A
7:20 AM41 °FPassing clouds.3 mph93%30.12 "HgN/A
6:20 AM43 °FPassing clouds.2 mph93%30.09 "HgN/A
5:20 AM45 °FPassing clouds.2 mph87%30.09 "HgN/A
Weather by CustomWeather, © 2014

See weather overviewHow to use our weather pages